Cross City, FL

5:52 AM EST on December 06, 2019 (GMT -0500)
Cross City

Weather History for KCTY - October, 2019

Change the Weather History Date:

Saturday, October 5, 2019

  Actual Average Record
Temperature  
Mean Temperature 79 °F 74 °F  
Max Temperature 91 °F 85 °F 92 °F (2018)
Min Temperature 66 °F 63 °F 48 °F (2014)
Degree Days  
Heating Degree Days 0    
Month to date heating degree days 0  
Since 1 July heating degree days 0  
Cooling Degree Days 14    
Month to date cooling degree days 71  
Year to date cooling degree days 2828  
Growing Degree Days 29 (Base 50)    
Moisture  
Dew Point 69 °F    
Average Humidity 77    
Maximum Humidity 100    
Minimum Humidity 37    
Precipitation  
Precipitation 0.00 in 0.15 in 0.34 in (2012)
Month to date precipitation 0.00 0.76  
Year to date precipitation 47.47 40.59  
Sea Level Pressure  
Sea Level Pressure 30.00 in    
Wind  
Wind Speed 5 mph (ENE)    
Max Wind Speed 12 mph    
Max Gust Speed 18 mph    
Visibility 8 miles    
Events Fog    
T = Trace of Precipitation, MM = Missing Value Source: NWS Daily Summary

Daily Weather History Graph

Daily Weather History Graph

Search for Another Location

Airport or City:

Astronomy

Oct. 05, 2019 Rise Set
Actual Time 7:27 AM EDT 7:13 PM EDT
Civil Twilight 7:03 AM EDT 7:37 PM EDT
Nautical Twilight 6:36 AM EDT 8:04 PM EDT
Astronomical Twilight 6:08 AM EDT 8:32 PM EDT
Moon 2:28 PM EDT (10/5) 12:06 AM EDT (10/5)
Length of Visible Light 12h 33m
Length of Day
11h 45m
Waxing Crescent, 50% of the Moon is Illuminated
Oct 5
Waxing Crescent
Oct 5
First Quarter
Oct 13
Full
Oct 21
Last Quarter
Oct 27
New

Hourly Weather History & Observations

Time (EDT) Temp. Heat Index Dew Point Humidity Pressure Visibility Wind Dir Wind Speed Gust Speed Precip Events Conditions
12:15 AM 70.7 °F - 68.5 °F 93% 30.01 in 10.0 mi Calm Calm - N/A   Clear
12:35 AM 70.3 °F - 68.7 °F 95% 30.00 in 10.0 mi Calm Calm - N/A   Clear
12:55 AM 69.8 °F - 68.4 °F 95% 30.00 in 10.0 mi Calm Calm - N/A   Clear
1:15 AM 70.5 °F - 69.3 °F 96% 29.99 in 10.0 mi NE 3.5 mph - N/A   Clear
1:35 AM 69.3 °F - 68.0 °F 96% 29.99 in 10.0 mi Calm Calm - N/A   Clear
1:55 AM 68.7 °F - 67.1 °F 95% 29.99 in 10.0 mi Calm Calm - N/A   Clear
2:15 AM 68.2 °F - 66.7 °F 95% 29.99 in 10.0 mi Calm Calm - N/A   Clear
2:35 AM 68.0 °F - 68.0 °F 100% 29.99 in 10.0 mi Calm Calm - N/A   Clear
2:55 AM 67.5 °F - 66.2 °F 96% 29.99 in 10.0 mi Calm Calm - N/A   Clear
3:15 AM 67.1 °F - 65.8 °F 96% 29.98 in 10.0 mi Calm Calm - N/A   Clear
3:35 AM 67.6 °F - 66.4 °F 96% 29.98 in 10.0 mi Calm Calm - N/A   Clear
3:55 AM 67.1 °F - 65.8 °F 96% 29.98 in 10.0 mi Calm Calm - N/A   Clear
4:15 AM 66.6 °F - 65.1 °F 95% 29.98 in 10.0 mi NNE 3.5 mph - N/A   Clear
4:35 AM 66.2 °F - 66.2 °F 100% 29.98 in 10.0 mi NNE 3.5 mph - N/A   Clear
4:55 AM 68.5 °F - 68.0 °F 98% 29.98 in 5.0 mi NNE 4.6 mph - N/A   Scattered Clouds
5:15 AM 68.0 °F - 68.0 °F 100% 29.97 in 0.8 mi Calm Calm - N/A   Overcast
5:35 AM 68.0 °F - 67.6 °F 99% 29.98 in 0.5 mi Calm Calm - N/A Fog Fog
5:55 AM 68.0 °F - 67.8 °F 99% 29.98 in 0.5 mi Calm Calm - N/A Fog Fog
6:15 AM 68.2 °F - 68.0 °F 99% 29.98 in 0.2 mi Calm Calm - N/A Fog Fog
6:35 AM 68.2 °F - 68.0 °F 99% 29.99 in 0.2 mi Calm Calm - N/A Fog Fog
6:55 AM 68.9 °F - 68.7 °F 99% 30.00 in 0.2 mi NNE 3.5 mph - N/A Fog Fog
7:15 AM 69.1 °F - 69.1 °F 100% 30.01 in 0.2 mi NE 4.6 mph - N/A Fog Fog
7:35 AM 69.3 °F - 69.3 °F 100% 30.02 in 0.2 mi NE 3.5 mph - N/A Fog Fog
7:55 AM 69.8 °F - 69.6 °F 99% 30.02 in 0.2 mi NE 5.8 mph - N/A Fog Fog
8:15 AM 70.2 °F - 70.2 °F 100% 30.03 in 0.2 mi NE 4.6 mph - N/A Fog Fog
8:35 AM 70.7 °F - 70.7 °F 100% 30.03 in 0.2 mi ENE 4.6 mph - N/A Fog Fog
8:55 AM 71.4 °F - 71.2 °F 99% 30.04 in 0.8 mi East 4.6 mph - N/A   Overcast
9:15 AM 71.8 °F - 71.6 °F 99% 30.05 in 1.0 mi ENE 5.8 mph - N/A   Overcast
9:35 AM 72.5 °F - 72.3 °F 99% 30.06 in 3.0 mi Calm Calm - N/A   Overcast
9:55 AM 73.9 °F - 73.6 °F 99% 30.06 in 10.0 mi East 4.6 mph - N/A   Mostly Cloudy
10:15 AM 75.9 °F - 74.1 °F 94% 30.06 in 10.0 mi ENE 4.6 mph - N/A   Mostly Cloudy
10:35 AM 78.4 °F - 74.1 °F 87% 30.06 in 10.0 mi East 8.1 mph - N/A   Mostly Cloudy
10:55 AM 80.6 °F 85.4 °F 73.4 °F 79% 30.06 in 10.0 mi East 6.9 mph - N/A   Scattered Clouds
11:15 AM 82.0 °F 87.0 °F 72.3 °F 72% 30.06 in 10.0 mi East 6.9 mph - N/A   Scattered Clouds
11:35 AM 82.6 °F 87.1 °F 70.9 °F 68% 30.06 in 10.0 mi ENE 10.4 mph - N/A   Scattered Clouds
11:55 AM 86.0 °F 91.1 °F 70.7 °F 60% 30.05 in 10.0 mi ENE 8.1 mph - N/A   Mostly Cloudy
12:15 PM 83.8 °F 87.8 °F 69.6 °F 62% 30.05 in 10.0 mi ENE 8.1 mph - N/A   Mostly Cloudy
12:35 PM 86.9 °F 92.1 °F 70.3 °F 58% 30.04 in 10.0 mi East 6.9 mph - N/A   Mostly Cloudy
12:55 PM 85.3 °F 88.8 °F 68.4 °F 57% 30.03 in 10.0 mi NE 6.9 mph - N/A   Scattered Clouds
1:15 PM 87.3 °F 90.9 °F 68.4 °F 53% 30.03 in 10.0 mi East 5.8 mph - N/A   Scattered Clouds
1:35 PM 88.7 °F 92.6 °F 68.2 °F 51% 30.02 in - ESE 8.1 mph - N/A   Scattered Clouds
1:55 PM 89.8 °F 92.9 °F 67.1 °F 47% 30.01 in 10.0 mi East 9.2 mph - N/A   Clear
2:15 PM 90.5 °F 94.2 °F 67.6 °F 47% 30.00 in 10.0 mi East 5.8 mph - N/A   Mostly Cloudy
2:35 PM 91.2 °F 95.5 °F 68.2 °F 47% 29.99 in 10.0 mi East 8.1 mph - N/A   Unknown
2:55 PM 90.9 °F 94.8 °F 68.0 °F 47% 29.98 in 10.0 mi East 6.9 mph - N/A   Unknown
3:15 PM 90.5 °F 94.6 °F 68.2 °F 48% 29.97 in 10.0 mi East 6.9 mph - N/A   Unknown
3:35 PM 91.2 °F 96.0 °F 68.9 °F 48% 29.97 in 10.0 mi ENE 10.4 mph - N/A   Unknown
3:55 PM 89.2 °F 93.2 °F 68.5 °F 50% 29.96 in 10.0 mi NE 6.9 mph - N/A   Unknown
4:15 PM 89.6 °F 93.4 °F 68.0 °F 49% 29.96 in 10.0 mi NE 8.1 mph - N/A   Unknown
4:35 PM 88.5 °F 92.3 °F 68.5 °F 51% 29.96 in 10.0 mi East 4.6 mph - N/A   Unknown
4:55 PM 89.4 °F 94.0 °F 69.3 °F 51% 29.95 in 10.0 mi ENE 9.2 mph - N/A   Scattered Clouds
5:15 PM 89.1 °F 93.3 °F 68.7 °F 51% 29.95 in 10.0 mi ENE 9.2 mph - N/A   Unknown
5:35 PM 89.6 °F 94.3 °F 69.3 °F 51% 29.95 in 10.0 mi ENE 9.2 mph - N/A   Unknown
5:55 PM 89.6 °F 94.7 °F 69.8 °F 52% 29.96 in 10.0 mi NE 11.5 mph 18.4 mph N/A   Scattered Clouds
6:15 PM 87.4 °F 92.7 °F 70.5 °F 57% 29.96 in 10.0 mi ENE 6.9 mph - N/A   Mostly Cloudy
6:35 PM 85.8 °F 90.8 °F 70.3 °F 60% 29.96 in 10.0 mi ENE 4.6 mph - N/A   Scattered Clouds
6:55 PM 84.6 °F 88.8 °F 70.0 °F 61% 29.97 in 10.0 mi ENE 4.6 mph - N/A   Scattered Clouds
7:15 PM 84.2 °F 88.4 °F 69.8 °F 62% 29.97 in 10.0 mi ENE 5.8 mph - N/A   Scattered Clouds
7:35 PM 82.8 °F 86.0 °F 68.5 °F 62% 29.98 in 10.0 mi East 6.9 mph - N/A   Clear
7:55 PM 82.2 °F 85.5 °F 68.7 °F 64% 29.99 in 10.0 mi East 8.1 mph - N/A   Clear
8:10 PM 81.9 °F 85.2 °F 69.3 °F 65% 29.99 in 10.0 mi ENE 9.2 mph - N/A   Clear
8:35 PM 80.6 °F 83.9 °F 69.8 °F 70% 30.00 in 10.0 mi ENE 10.4 mph - N/A   Clear
8:55 PM 80.6 °F 83.5 °F 68.9 °F 67% 30.00 in 10.0 mi East 10.4 mph 17.3 mph N/A   Clear
9:15 PM 79.7 °F - 69.1 °F 70% 30.01 in 10.0 mi East 9.2 mph - N/A   Clear
9:35 PM 79.0 °F - 69.8 °F 73% 30.02 in 10.0 mi East 5.8 mph - N/A   Clear
9:55 PM 78.4 °F - 70.2 °F 76% 30.03 in 10.0 mi East 4.6 mph - N/A   Clear
10:15 PM 77.9 °F - 70.5 °F 78% 30.03 in 10.0 mi ENE 5.8 mph - N/A   Clear
10:35 PM 77.4 °F - 70.7 °F 80% 30.03 in 10.0 mi ENE 4.6 mph - N/A   Clear
10:55 PM 76.8 °F - 70.7 °F 81% 30.03 in 10.0 mi ENE 4.6 mph - N/A   Clear
11:35 PM 75.4 °F - 70.9 °F 86% 30.03 in 10.0 mi ENE 4.6 mph - N/A   Clear
11:55 PM 75.0 °F - 70.9 °F 87% 30.04 in 10.0 mi East 3.5 mph - N/A   Clear